This is the latest recevied weather packets stored in our database for station/object F4GQK-13. If no packets are shown the sender has not sent any weather packets the latest 1 day(s).
| Time | Temp. | Humidity | Pressure | Rain* | Wind** | Luminosity | Snow |
|---|---|---|---|---|---|---|---|
| 1778026805 | 11.11° C | 99% | 1008.3 hPa | 0.76 mm | 0.45 m/s, 347° | 0 W/m² | - |
| 1778026505 | 11.11° C | 99% | 1008.2 hPa | 0.76 mm | 0.89 m/s, 338° | 0 W/m² | - |
| 1778026205 | 11.11° C | 99% | 1008.2 hPa | 0.51 mm | 0.89 m/s, 338° | 0 W/m² | - |
| 1778025905 | 11.11° C | 99% | 1008.3 hPa | 0.51 mm | 0.45 m/s, 313° | 0 W/m² | - |
| 1778025605 | 11.11° C | 99% | 1008.2 hPa | 0 mm | 0.89 m/s, 325° | 0 W/m² | - |
| 1778025305 | 11.11° C | 99% | 1008.1 hPa | 0 mm | 0.45 m/s, 337° | 0 W/m² | - |
| 1778025005 | 11.11° C | 99% | 1008.2 hPa | 0 mm | 0.45 m/s, 315° | 0 W/m² | - |
| 1778024705 | 11.11° C | 99% | 1008.2 hPa | 0 mm | 0.89 m/s, 310° | 0 W/m² | - |
| 1778024405 | 11.11° C | 99% | 1008.3 hPa | 0 mm | 0.89 m/s, 339° | 0 W/m² | - |
| 1778024105 | 11.11° C | 99% | 1008.2 hPa | 0 mm | 0.89 m/s, 344° | 0 W/m² | - |
| 1778023805 | 11.11° C | 99% | 1008.3 hPa | 0.25 mm | 0.45 m/s, 345° | 0 W/m² | - |
| 1778023504 | 11.11° C | 99% | 1008.3 hPa | 0.25 mm | 0.89 m/s, 339° | 0 W/m² | - |
| 1778023205 | 11.67° C | 99% | 1008.3 hPa | 0.25 mm | 0.45 m/s, 329° | 0 W/m² | - |
| 1778022904 | 11.67° C | 99% | 1008.2 hPa | 0.25 mm | 0.45 m/s, 338° | 0 W/m² | - |
| 1778022605 | 11.67° C | 99% | 1008.3 hPa | 0.25 mm | 0.89 m/s, 4° | 0 W/m² | - |
| 1778022305 | 11.67° C | 99% | 1008.4 hPa | 0.25 mm | 0.45 m/s, 331° | 0 W/m² | - |
| 1778022005 | 11.67° C | 99% | 1008.4 hPa | 12.7 mm | 0.45 m/s, 320° | 0 W/m² | - |
| 1778021705 | 11.67° C | 99% | 1008.3 hPa | 12.7 mm | 1.34 m/s, 322° | 0 W/m² | - |
| 1778021405 | 11.67° C | 99% | 1008.3 hPa | 12.7 mm | 0.45 m/s, 306° | 0 W/m² | - |
| 1778021105 | 11.67° C | 99% | 1008.5 hPa | 12.7 mm | 0.45 m/s, 326° | 0 W/m² | - |
| 1778020805 | 11.67° C | 99% | 1008.3 hPa | 12.7 mm | 0.45 m/s, 326° | 0 W/m² | - |
| 1778020505 | 11.67° C | 99% | 1008.4 hPa | 12.7 mm | 0.89 m/s, 299° | 0 W/m² | - |
| 1778020216 | 11.67° C | 99% | 1008.4 hPa | 12.7 mm | 0.45 m/s, 312° | 0 W/m² | - |
| 1778019904 | 11.67° C | 99% | 1008.3 hPa | 12.7 mm | 0.45 m/s, 297° | 0 W/m² | - |
| 1778019605 | 11.67° C | 99% | 1008.3 hPa | 12.7 mm | 0.45 m/s, 300° | 0 W/m² | - |
* Rain latest hour (hover to see other rain measurements)
** Current wind speed in m/s (hover to see current wind gust speed)